Theta_e
346 346 346 347 347 350 350 350 356 357 357 345 339 346 352 360 362 363 365 363 363 359 355 353 349 348 351 351 352 353 352 357 356 352 352 355 354 352 353 353 353 354 353 354 352 350 352 351 351 351 350 349 349 350 349 348 348 348 348 348 348 347 347 347 347 347 347 348 348 349 350 351 351 351 352 353 354 353 352 352 353 353 352 350 350 351 351 351 349 349 350 349 349 349 350 348 346
346 346 346 348 348 351 350 351 357 351 347 341 339 350 355 361 361 363 366 364 363 356 353 350 347 348 349 349 350 353 353 352 352 352 353 353 353 352 352 353 353 353 354 354 353 353 352 350 349 351 350 349 348 348 348 347 347 347 347 347 348 347 347 348 349 349 349 351 352 352 352 353 352 353 353 353 353 353 353 353 353 352 352 350 350 351 351 350 348 348 350 349 349 349 348 346 346
346 346 346 348 347 350 351 353 355 342 339 341 340 354 360 361 362 363 365 361 358 353 351 348 348 350 348 350 353 355 353 349 348 348 350 352 353 351 352 352 353 353 354 353 353 353 352 349 350 351 352 353 352 352 352 352 352 352 351 351 351 351 349 349 351 352 352 353 353 353 353 353 353 353 353 353 353 353 353 353 353 352 351 350 349 351 350 349 349 348 349 350 350 349 347 345 345
346 346 346 347 346 351 356 356 357 344 336 338 340 355 363 362 363 363 362 359 354 351 350 350 350 350 349 353 354 353 352 351 350 349 350 352 352 350 352 353 353 354 353 354 352 352 352 349 350 352 352 354 353 353 353 354 354 353 353 352 352 351 351 351 352 353 353 354 353 353 353 352 353 353 353 353 353 353 353 353 353 352 351 350 349 350 349 350 350 349 349 349 350 349 346 345 346
346 347 347 349 350 353 361 360 356 346 342 345 345 357 364 362 362 360 360 357 353 351 349 350 352 352 351 353 354 354 351 351 351 351 351 352 352 350 352 353 353 353 353 353 351 353 352 348 351 352 353 354 354 354 353 354 354 353 353 353 352 352 353 353 354 354 353 353 353 353 353 352 352 352 353 353 353 353 353 353 353 353 351 349 350 350 349 351 351 349 348 348 350 349 346 346 346
346 348 347 350 353 355 362 356 346 343 351 359 352 358 363 361 362 359 358 356 353 350 349 351 352 352 353 353 353 353 351 350 350 351 352 353 352 350 351 352 352 351 353 353 351 353 351 349 351 352 353 354 354 353 353 354 353 352 353 353 352 353 353 354 354 354 354 353 353 352 353 353 352 351 353 353 353 353 353 354 353 353 352 350 350 349 348 350 350 348 347 348 348 346 346 346 346
348 350 348 352 354 356 362 349 341 344 353 361 357 360 363 361 360 359 358 357 355 351 350 352 350 353 354 352 352 351 352 351 350 350 351 353 351 350 350 351 351 350 352 352 352 353 351 351 352 352 354 354 353 353 353 352 352 352 352 352 352 352 353 353 353 354 354 354 353 353 353 353 352 352 352 352 353 353 354 353 352 353 352 350 349 348 349 350 349 347 346 347 346 345 345 346 347
350 352 350 357 361 360 359 346 345 352 354 358 359 361 362 362 360 359 360 357 357 353 352 352 350 356 355 352 353 351 351 351 350 350 351 352 351 350 350 350 350 349 351 352 353 352 350 351 353 353 354 354 352 352 352 351 352 352 352 353 353 353 353 353 354 354 353 353 353 353 354 353 352 353 352 352 353 353 353 353 353 353 352 350 349 348 349 350 349 348 346 346 346 346 346 346 347
350 355 356 359 364 357 350 345 348 355 357 358 358 360 363 362 359 359 359 357 356 354 353 352 350 357 356 354 354 351 351 351 350 351 351 352 351 350 350 350 350 349 350 352 353 352 351 351 353 353 353 353 351 351 351 352 353 353 354 354 353 353 354 354 354 354 353 352 352 352 352 352 352 352 351 353 353 353 353 353 353 353 351 351 350 347 347 349 350 349 348 347 347 348 348 346 346
351 356 360 362 358 344 339 342 348 354 358 358 359 361 362 360 358 358 357 357 355 354 353 350 352 357 356 356 354 351 350 350 351 351 352 352 350 349 350 349 350 349 349 351 352 353 351 350 353 353 353 353 351 351 352 354 354 354 354 354 354 354 354 353 353 354 354 353 352 351 351 352 352 352 352 353 353 353 353 353 353 352 351 350 349 347 345 348 349 349 349 348 348 348 347 347 346
356 356 358 359 348 337 335 339 348 354 359 359 360 361 359 357 357 357 355 356 354 354 353 351 354 355 355 356 353 352 351 350 351 352 352 351 350 349 350 349 350 349 349 351 351 353 352 351 352 353 353 353 351 352 353 354 354 354 354 354 354 353 353 353 353 354 354 353 352 351 351 351 352 352 352 353 353 353 353 353 352 351 351 350 350 348 346 348 349 348 349 349 348 348 346 346 345
361 360 359 355 344 341 342 342 349 356 359 360 362 360 356 355 358 357 355 355 354 354 353 353 354 353 356 357 353 351 350 349 350 351 352 351 350 350 349 350 349 348 348 349 351 352 353 352 352 352 353 352 352 353 353 354 353 353 353 354 354 353 353 353 353 353 354 352 352 352 351 351 351 351 352 352 353 353 352 352 352 351 351 352 351 350 349 348 348 348 349 350 349 348 347 346 345
360 363 360 354 349 351 349 346 351 356 357 359 361 357 355 356 358 357 356 355 354 355 353 352 352 353 357 356 352 350 349 350 351 351 352 351 350 350 349 349 348 348 348 349 350 351 352 353 353 353 352 352 353 353 353 354 353 353 353 353 354 353 352 352 352 353 354 352 352 351 351 351 351 352 352 352 353 353 353 352 352 352 352 352 352 350 349 349 348 348 349 350 350 348 347 346 346
359 362 358 355 354 355 351 347 350 349 350 358 360 357 357 355 356 356 357 356 354 354 353 352 350 353 356 356 353 349 347 350 351 351 351 352 351 350 350 349 349 349 349 348 350 352 352 352 354 354 352 351 353 353 353 353 353 353 352 352 353 353 352 351 352 352 352 353 353 352 352 352 352 352 352 353 353 353 352 353 352 352 352 352 352 351 350 350 349 348 348 348 348 347 347 348 347
357 357 358 358 353 351 350 349 348 345 348 359 358 356 358 354 355 356 358 358 355 352 351 353 351 354 356 355 354 349 347 349 351 351 351 352 351 351 350 350 350 349 349 348 350 351 351 351 353 355 353 352 353 354 353 352 352 352 351 351 352 352 353 352 352 352 352 353 353 353 353 353 353 353 353 353 352 351 350 352 352 352 352 351 351 351 351 351 349 348 347 347 347 347 348 348 347
355 356 360 356 348 345 347 350 350 347 349 359 357 355 359 355 354 356 356 356 354 351 351 352 350 352 353 352 353 349 348 349 350 351 352 353 352 352 351 351 350 349 349 348 349 350 350 351 353 355 355 354 355 357 355 352 351 350 349 350 351 351 353 354 353 353 353 353 352 353 354 354 354 353 354 353 352 352 351 351 351 351 351 350 351 351 351 351 349 348 348 348 348 348 347 346 346
352 358 361 352 346 344 347 352 351 348 352 358 356 356 360 357 355 355 353 352 354 352 351 352 349 351 350 351 352 349 348 349 350 350 351 352 352 353 351 352 351 349 349 348 349 349 350 352 352 353 355 355 356 356 356 354 349 349 349 349 349 349 352 353 353 354 354 352 351 352 354 356 355 354 354 354 353 353 352 351 351 351 350 350 351 351 351 350 349 347 348 349 349 349 348 346 346
355 361 358 348 349 350 351 354 351 352 355 356 356 356 359 358 357 354 352 353 354 353 352 351 350 351 351 352 351 349 349 349 350 350 351 351 352 353 352 352 350 349 349 349 350 349 350 352 353 353 353 355 356 356 356 354 351 351 352 350 349 349 350 352 354 355 354 353 352 355 356 356 355 355 355 355 355 354 352 352 352 352 351 351 351 351 350 350 349 347 347 348 348 349 348 347 346
356 360 354 351 355 355 353 354 351 352 353 354 355 354 356 357 355 354 354 356 354 355 354 352 352 351 350 351 350 349 349 349 350 350 351 351 351 351 352 351 350 349 348 349 350 349 350 352 352 352 352 355 355 355 355 354 353 353 353 352 352 352 352 355 356 356 356 356 356 357 356 355 356 356 354 354 354 352 352 352 352 351 350 350 349 349 349 350 349 348 347 346 347 349 349 348 347
353 356 355 356 356 354 352 352 351 351 351 353 354 353 355 355 354 354 355 356 354 356 355 354 354 351 349 348 349 350 349 350 349 349 350 349 348 350 351 351 349 348 348 349 350 349 349 351 352 351 353 354 354 354 354 354 354 353 352 352 352 353 354 356 356 357 357 357 357 357 355 356 356 355 353 352 352 353 352 351 351 351 350 350 351 350 349 350 349 348 348 348 349 349 350 349 349
350 353 356 358 355 354 353 351 350 350 350 353 353 353 355 354 353 353 355 357 355 356 355 354 353 351 349 346 348 350 350 350 349 349 349 348 347 349 350 350 349 348 348 349 351 350 349 350 351 351 353 353 353 353 353 354 354 353 352 351 352 353 354 354 355 356 356 355 355 355 355 356 356 355 354 354 355 355 354 353 353 354 353 353 354 353 351 352 352 351 351 352 351 351 350 350 350
351 352 353 356 353 354 354 350 350 351 350 353 353 353 354 353 354 353 355 356 355 353 352 353 352 349 348 346 348 350 349 349 349 349 348 347 348 348 349 349 349 348 349 350 352 352 349 349 350 351 352 353 353 352 354 355 354 353 352 351 352 353 354 354 353 353 354 354 354 354 354 355 355 355 355 355 355 356 355 355 355 355 355 355 354 354 353 354 354 354 354 353 352 351 350 351 350
350 351 351 354 353 355 353 350 351 352 351 352 352 352 352 353 355 353 354 354 352 351 352 352 351 350 350 349 348 347 346 347 348 349 347 348 348 348 349 349 349 349 350 350 352 353 350 349 350 350 351 353 353 352 353 355 353 353 352 352 352 352 354 353 352 352 353 354 353 353 353 353 354 354 355 355 355 355 355 354 354 354 354 355 354 354 354 355 354 354 353 353 352 350 350 351 352
346 349 351 352 352 354 352 351 352 350 351 350 349 350 351 353 355 354 353 353 351 351 351 351 351 352 351 348 347 346 346 347 348 348 347 348 348 348 349 349 349 350 350 351 352 353 350 349 350 350 351 352 353 352 353 354 353 353 353 352 351 352 353 351 351 352 354 354 353 353 352 352 353 354 354 355 355 355 355 354 354 354 354 354 355 354 354 354 354 353 353 352 352 351 350 351 351
343 344 348 351 350 352 350 350 350 349 349 347 347 350 351 352 352 353 353 351 351 352 352 351 351 350 349 347 347 346 346 348 349 347 348 348 348 349 349 349 350 350 350 351 352 352 351 351 350 349 351 352 352 352 352 353 353 353 352 352 352 353 352 349 351 352 352 352 353 354 353 352 353 353 354 355 355 355 355 355 354 354 354 354 354 353 353 354 353 353 353 352 352 352 351 351 350
339 339 342 348 348 349 349 349 349 348 348 345 347 349 349 349 349 352 351 349 351 353 352 351 351 349 349 348 347 347 345 347 349 348 349 349 348 349 350 350 350 350 350 351 351 351 351 352 351 350 351 352 351 351 351 352 353 353 352 352 352 352 351 351 352 351 351 351 351 353 354 354 353 353 354 354 355 355 355 355 354 354 355 355 354 353 354 354 353 353 354 353 352 352 351 351 351
338 339 340 344 345 347 347 348 349 347 347 345 347 348 348 348 351 352 349 349 352 353 353 352 351 350 349 348 347 349 347 347 349 348 349 350 348 349 350 350 350 350 349 350 350 351 351 352 352 350 350 351 350 350 351 352 353 353 353 353 352 352 352 353 352 351 351 352 352 352 354 355 355 354 354 354 355 354 354 355 355 354 354 354 354 354 354 354 354 355 355 355 354 354 352 352 351
336 339 340 340 340 342 344 347 347 347 347 345 345 347 347 348 350 351 348 350 353 354 354 353 353 352 351 349 348 350 350 350 350 349 350 349 348 349 350 351 350 350 350 350 350 350 351 351 351 351 352 352 351 350 351 351 352 351 352 352 351 351 353 352 351 352 352 353 354 353 354 355 355 355 355 356 355 355 355 354 355 355 355 354 354 355 355 355 355 356 356 356 356 355 352 352 351
331 335 337 339 340 341 342 345 346 346 346 343 344 343 345 351 350 349 349 351 352 353 354 354 353 353 351 350 349 350 350 351 351 349 350 349 349 349 349 350 349 350 350 350 351 350 351 350 350 351 352 353 352 350 351 352 351 351 351 351 351 352 352 351 351 352 352 355 355 354 354 354 355 356 357 357 356 355 355 355 355 355 355 355 355 355 356 355 354 354 355 356 356 355 353 352 351
328 329 333 335 336 338 342 344 344 345 344 343 343 336 340 351 350 348 350 351 353 354 355 354 353 353 351 351 350 350 351 352 351 350 350 349 350 349 349 350 350 351 351 351 351 351 350 350 351 351 352 353 352 350 352 352 352 352 351 351 351 351 351 351 352 352 353 354 354 353 353 353 354 356 358 358 357 356 356 356 355 355 355 356 356 356 356 354 353 353 354 355 355 355 354 353 352
327 327 329 332 327 331 343 344 343 345 342 342 342 335 342 351 347 347 350 350 352 354 356 354 353 354 352 351 351 350 351 353 352 351 351 351 350 350 351 350 350 351 352 352 351 351 351 351 351 351 352 353 352 352 353 352 352 352 352 351 352 352 352 352 352 352 353 353 352 352 352 353 354 355 357 358 358 357 355 355 355 355 356 356 356 356 356 354 354 354 354 355 355 354 354 353 352
329 323 321 327 324 328 343 343 343 347 342 343 342 336 344 349 346 348 349 350 351 353 355 355 354 354 353 352 352 350 351 353 353 351 351 351 351 351 351 351 351 352 352 352 352 352 352 352 352 351 352 353 353 353 354 353 353 352 352 352 352 352 352 352 351 350 351 351 351 352 352 353 354 356 356 357 358 357 355 355 355 356 356 356 357 357 356 355 355 355 355 355 355 355 354 354 353
326 323 316 321 323 326 336 340 343 345 344 344 341 339 344 347 346 347 348 349 350 352 354 355 355 355 354 353 352 351 351 352 352 352 352 352 352 352 352 352 352 352 353 353 353 353 353 353 352 351 351 353 353 354 354 354 354 353 353 353 352 352 351 350 350 350 350 350 351 352 353 354 355 356 355 355 358 357 356 355 355 357 357 356 357 358 357 356 355 356 357 356 356 356 355 354 353
318 321 318 320 324 323 327 336 343 343 344 345 344 344 346 347 346 347 348 349 350 351 353 354 356 356 355 354 352 352 352 351 351 353 353 352 353 352 352 353 352 353 354 354 353 354 353 353 353 351 352 353 353 354 354 354 354 354 353 352 351 351 349 348 348 348 349 349 350 351 354 356 355 357 356 355 358 358 356 356 356 357 356 357 358 357 357 356 355 355 357 358 357 356 355 355 352
314 317 317 317 323 324 324 332 341 343 344 345 345 345 346 346 345 347 347 347 349 351 352 354 355 355 357 356 353 353 352 351 352 353 354 353 353 353 353 354 353 354 354 353 354 355 355 354 353 353 353 353 354 355 355 354 354 353 353 352 351 350 348 348 348 348 348 348 349 351 353 355 355 357 357 356 358 358 357 356 357 358 357 358 358 356 356 356 357 357 356 358 359 356 355 355 353
318 319 319 316 319 323 327 334 339 342 343 344 345 344 345 346 345 348 347 347 350 350 351 354 355 356 357 356 354 355 353 352 353 353 353 353 354 354 354 355 354 354 354 354 355 356 355 355 355 354 355 354 354 355 354 353 353 352 352 351 350 350 347 346 348 347 347 347 348 351 352 354 355 357 357 358 359 359 358 357 358 359 357 358 358 356 355 357 360 360 358 359 358 356 355 355 354
324 323 321 320 319 321 329 334 337 341 340 341 345 344 346 346 345 347 347 348 350 349 352 354 355 356 356 356 355 355 355 353 354 354 353 353 354 354 354 354 354 354 354 354 356 356 356 356 356 356 356 355 355 354 353 352 352 352 352 351 348 347 346 346 346 345 345 345 348 351 353 354 355 357 357 358 360 360 360 359 360 359 358 357 358 358 358 360 361 359 359 358 355 353 352 353 353
324 322 320 320 320 322 329 333 334 339 337 338 344 343 344 346 345 346 347 349 349 349 352 355 356 356 356 357 356 356 355 353 354 354 354 354 354 354 353 354 354 354 355 355 356 357 356 356 355 356 355 356 355 355 353 351 352 353 353 349 344 343 345 346 344 343 342 344 348 351 353 354 355 356 357 358 359 360 360 360 360 360 358 358 359 360 360 362 362 360 360 358 355 353 350 351 353
321 321 319 317 320 324 327 332 335 336 334 336 343 341 341 345 344 344 346 348 350 349 351 354 357 357 357 357 356 356 356 355 354 353 354 354 354 354 354 354 355 355 355 356 356 357 357 356 355 355 356 356 356 355 353 352 353 355 353 348 343 340 343 343 341 342 342 343 347 351 352 354 356 355 356 357 357 357 358 359 359 359 360 360 361 361 361 362 362 361 360 357 357 355 352 352 354
320 318 315 314 320 321 319 326 334 335 333 336 341 338 339 344 343 343 344 347 349 349 350 353 355 356 357 357 356 356 356 357 355 352 353 354 355 354 354 355 355 355 356 356 357 357 357 356 355 356 356 356 356 355 354 354 355 357 355 351 346 342 344 345 343 345 346 344 345 349 353 355 356 355 356 356 356 356 357 357 357 358 360 361 361 363 362 361 361 360 358 358 357 354 352 354 355
318 317 314 315 322 323 321 327 333 332 332 335 336 330 332 340 343 343 342 345 348 348 350 353 354 355 355 355 356 356 356 357 356 354 353 354 355 355 354 355 355 355 356 356 356 356 357 357 356 356 356 355 356 356 356 356 356 357 355 353 350 346 347 348 346 345 346 344 342 346 353 356 356 356 356 357 357 356 356 357 357 357 358 359 360 361 361 360 359 358 358 359 358 355 354 354 353
315 317 317 318 323 326 327 329 329 324 323 330 331 321 323 335 340 342 342 345 347 347 350 353 354 356 355 356 356 355 356 355 355 355 354 355 355 355 355 355 355 355 355 355 356 356 356 357 357 356 355 355 355 356 356 356 356 357 356 353 351 349 348 346 345 342 341 342 340 341 350 356 356 356 356 357 357 357 357 357 357 356 356 357 359 359 359 359 359 358 358 358 357 357 357 355 353
312 317 319 319 322 325 327 327 324 318 318 328 331 322 319 327 333 341 343 345 348 348 350 353 354 356 356 356 357 356 356 355 355 355 354 355 356 356 356 355 355 355 355 355 355 355 356 357 357 357 356 355 355 355 355 355 355 356 356 353 351 350 348 346 344 341 339 340 339 339 346 354 357 356 356 357 358 358 358 358 357 357 356 357 357 358 357 357 358 357 358 358 359 360 360 358 354
312 318 320 319 319 320 324 325 321 320 322 328 330 325 319 319 329 341 343 342 347 349 351 353 354 356 356 356 356 356 356 355 356 356 355 355 356 357 356 356 356 355 355 356 355 356 356 358 358 358 357 356 355 355 356 356 355 357 357 354 352 351 348 347 347 345 341 342 342 341 346 353 357 357 356 357 358 359 359 358 358 357 357 356 357 357 356 355 356 356 359 361 361 362 361 360 357
316 320 320 319 319 319 320 321 320 322 322 320 323 325 321 317 326 340 343 339 343 348 352 353 352 354 355 355 355 355 356 356 356 355 355 355 357 358 357 357 357 355 355 356 356 356 357 358 359 358 358 356 356 356 356 356 355 357 357 355 354 352 349 348 350 348 346 347 348 346 349 354 357 358 357 357 359 359 359 359 358 358 357 357 356 355 354 354 354 356 359 362 362 362 360 360 360
319 320 321 321 321 319 318 317 316 319 320 317 319 321 320 317 321 331 335 334 340 346 349 351 351 353 355 354 354 355 355 355 355 355 355 356 358 358 357 358 357 355 356 356 356 357 358 359 360 359 358 357 357 356 356 356 355 356 357 356 355 354 352 350 351 352 351 351 351 350 351 354 355 357 357 357 359 359 359 358 358 358 358 357 357 355 354 354 354 354 357 359 361 362 362 360 360
319 320 320 321 321 320 318 316 313 315 317 318 318 320 320 318 319 325 331 334 340 344 345 349 350 349 353 355 353 353 355 355 355 354 355 358 359 358 358 358 357 356 356 357 357 358 359 360 360 360 360 358 358 357 357 356 355 356 357 357 356 356 355 353 353 354 354 354 353 351 351 353 353 355 356 356 358 359 359 358 358 358 358 357 357 356 355 355 354 354 354 355 358 361 362 361 360
320 320 318 316 317 318 316 313 313 313 314 316 318 321 320 317 320 328 334 337 338 340 341 347 348 348 352 354 353 352 353 354 355 355 355 357 358 358 358 358 358 358 357 358 359 359 359 360 361 361 361 359 358 358 357 356 355 356 357 357 358 358 357 356 355 356 356 355 354 352 352 354 355 355 356 356 357 358 358 358 358 357 358 358 358 357 356 356 355 354 354 355 356 358 360 362 361
321 319 316 313 313 316 315 313 312 312 312 315 318 320 318 317 324 332 336 336 337 337 339 343 345 347 351 354 354 353 352 353 354 355 355 355 356 358 359 359 359 359 358 358 359 359 360 360 361 362 362 360 359 358 357 356 356 356 356 358 358 358 358 357 357 356 356 356 354 353 353 355 356 356 356 356 356 357 358 359 359 358 358 359 359 358 357 357 356 355 356 356 356 356 358 360 361
320 316 314 312 312 317 318 315 314 313 312 314 318 319 316 316 325 334 335 334 336 337 338 340 341 345 349 352 353 352 351 353 353 354 354 355 356 358 359 359 359 360 359 359 359 359 360 360 362 363 362 362 360 359 358 357 356 356 356 357 358 358 358 358 357 356 356 356 355 354 353 354 356 356 356 357 356 356 357 359 360 359 359 360 359 358 357 357 357 356 357 356 356 356 356 358 359
322 320 318 314 312 316 318 315 313 314 312 313 315 316 313 314 322 332 334 333 335 336 336 338 340 341 345 348 350 350 351 352 352 354 354 354 356 359 360 359 359 360 359 359 359 359 360 361 362 363 363 363 362 360 359 357 357 356 356 356 357 357 358 358 358 357 356 356 355 354 353 352 353 354 355 357 357 357 357 359 360 359 359 359 359 358 357 357 357 357 357 357 357 356 357 357 358
322 323 318 314 314 316 315 314 313 313 313 313 313 313 316 321 327 332 332 332 332 334 335 336 337 339 341 344 346 348 349 351 352 353 354 354 357 359 359 359 359 360 360 359 360 360 361 362 362 363 364 363 362 361 359 359 358 357 356 357 356 357 357 358 359 358 357 357 356 355 355 354 352 353 356 358 358 358 358 358 359 358 358 359 359 358 357 357 358 358 358 359 358 356 357 358 357
321 320 316 318 321 319 314 312 313 313 314 315 313 314 318 321 324 328 330 330 331 332 333 333 334 337 339 340 343 344 346 350 351 353 354 354 356 358 358 358 359 360 359 360 360 360 361 361 362 364 364 363 363 362 360 359 359 358 357 357 356 356 357 357 359 359 357 356 357 357 356 356 354 354 356 358 359 359 358 358 358 357 358 358 359 358 358 358 358 358 358 359 359 357 358 359 357
321 317 318 321 322 320 316 313 313 314 315 315 313 313 315 314 317 325 327 328 329 331 331 332 334 335 336 338 340 341 343 347 351 353 354 353 354 357 358 358 358 359 359 360 360 361 361 361 362 363 364 363 363 362 361 360 360 359 359 358 357 356 356 357 358 359 357 357 358 358 356 356 356 355 355 356 358 359 360 359 358 358 358 358 358 358 358 359 358 358 357 359 360 359 359 360 359
323 321 324 322 317 316 316 315 315 315 315 314 312 311 312 311 314 321 325 325 326 328 330 331 331 333 335 335 338 341 341 344 350 353 354 353 353 356 358 357 357 358 359 360 360 361 361 362 362 362 363 363 363 362 361 361 361 360 359 359 358 357 357 357 358 359 358 358 358 358 357 356 356 356 356 357 358 358 360 360 358 358 358 358 359 358 358 359 359 358 357 357 359 360 360 360 359
324 324 326 324 319 317 317 317 317 316 315 315 313 312 311 314 320 322 325 327 326 327 328 329 331 332 334 335 337 341 341 343 347 351 353 353 353 355 357 356 356 357 358 359 360 360 360 361 361 362 362 362 363 362 361 362 362 360 360 360 359 359 358 358 359 359 359 358 358 358 357 356 356 357 358 358 358 357 358 359 359 358 357 357 358 358 357 359 359 359 358 356 357 359 360 360 359
322 320 320 321 321 320 319 319 317 315 316 316 316 314 312 319 327 326 326 329 327 327 329 329 330 331 332 335 337 340 342 344 347 350 352 352 352 355 356 355 356 356 358 359 359 359 359 360 362 362 362 362 362 362 362 362 361 361 361 361 361 360 359 359 360 359 359 359 358 358 358 357 356 357 358 358 359 358 357 358 358 358 357 356 358 358 357 358 360 361 359 358 358 359 360 360 359
322 320 320 320 320 318 317 318 317 315 315 315 316 314 314 322 329 327 326 328 328 329 330 328 330 331 331 334 336 339 341 345 347 349 350 351 352 354 355 355 355 355 357 358 357 358 358 360 361 361 361 361 361 361 361 362 362 362 362 362 361 361 360 361 361 360 359 359 359 359 359 358 357 357 358 358 359 358 357 358 358 358 358 357 359 360 359 357 359 361 361 359 359 360 361 360 360
Wind_Speed
13 12 11 9 10 7 4 3 3 3 4 3 2 2 3 2 3 5 7 7 5 7 5 8 12 9 5 4 8 6 7 5 3 1 4 10 20 22 17 18 19 17 17 17 18 19 19 20 21 21 22 22 21 21 20 19 19 19 19 19 18 17 16 16 15 14 14 13 13 13 13 13 13 13 12 12 12 12 12 12 12 12 12 13 12 11 11 11 11 11 13 15 15 15 14 14 14
13 12 11 9 9 5 2 2 4 3 4 3 2 2 4 4 4 5 7 6 6 7 7 10 12 7 4 6 8 6 9 9 6 7 10 20 24 19 19 19 19 18 17 16 17 18 18 19 19 19 20 20 20 20 20 19 19 19 19 18 18 17 16 15 14 14 13 13 12 12 12 12 12 13 13 13 13 12 12 12 13 13 13 13 12 12 11 11 11 12 14 15 14 14 13 14 13
13 12 12 10 7 4 1 2 4 1 3 1 4 4 4 4 4 6 7 6 8 10 11 12 11 7 6 9 5 3 7 7 9 11 13 23 20 18 22 19 19 18 16 16 16 17 17 18 18 18 18 19 19 19 19 18 18 18 18 18 17 16 15 15 14 14 13 13 12 13 13 12 12 12 13 13 13 12 12 13 13 13 13 13 13 13 12 12 13 13 14 13 13 13 14 14 13
12 11 12 9 5 4 2 3 3 3 2 1 4 6 3 4 7 8 7 8 10 11 12 12 9 3 5 9 4 5 8 7 11 12 13 18 18 22 24 20 19 17 16 15 16 16 17 18 18 17 18 18 18 18 18 17 17 17 17 17 16 16 15 15 15 14 13 13 13 13 13 13 12 12 13 12 12 12 12 13 13 13 13 13 13 13 13 13 14 14 13 13 12 12 13 14 13
11 10 10 6 3 2 2 3 3 4 1 2 3 7 4 5 8 8 8 9 11 12 13 11 8 4 4 7 3 4 8 8 11 14 16 17 22 27 24 21 19 17 16 15 16 17 17 18 17 17 17 17 17 17 18 17 17 17 17 17 16 15 15 14 14 14 14 13 13 13 12 13 13 12 12 12 12 12 13 13 13 13 13 14 14 14 14 14 14 14 12 12 12 13 13 13 13
11 9 6 5 3 1 2 3 3 2 3 3 2 7 5 6 8 9 10 11 10 12 12 9 9 8 6 8 5 5 6 7 13 15 17 21 25 27 25 22 19 18 17 16 17 17 18 18 17 18 17 17 17 17 18 17 17 17 17 16 16 15 14 14 14 14 14 13 13 13 13 13 13 12 12 12 12 12 12 13 13 13 13 14 15 15 15 14 14 13 13 12 13 13 13 13 13
10 8 5 4 3 1 3 3 1 1 5 3 3 6 6 7 8 10 12 12 10 11 10 7 10 9 6 6 6 8 6 7 13 15 18 23 27 27 25 21 19 19 17 16 17 18 19 18 18 18 17 17 17 17 17 16 16 16 16 15 15 15 14 14 14 13 13 13 13 13 13 12 12 12 12 13 12 12 12 12 14 13 13 14 16 16 15 14 14 13 13 13 13 14 13 12 12
8 4 3 4 3 3 4 3 1 2 4 3 3 5 7 8 9 10 12 11 10 11 10 9 11 7 6 6 5 8 8 9 13 18 22 25 27 26 23 20 20 19 17 16 17 19 19 18 18 17 16 16 16 16 16 16 16 15 15 15 15 14 14 14 13 13 12 13 13 13 12 12 12 12 11 12 12 12 12 12 13 13 13 15 16 16 15 14 14 14 13 13 14 13 12 12 12
7 3 2 3 3 3 3 1 2 2 3 4 4 5 7 8 9 10 10 10 10 10 11 11 9 6 8 7 7 7 8 11 16 21 24 25 27 25 22 21 20 19 18 17 18 19 18 18 17 16 16 15 16 16 15 15 15 15 15 15 15 14 14 13 13 13 12 12 12 12 12 12 12 12 12 11 12 13 12 12 13 13 14 15 15 15 14 13 14 13 13 13 14 13 11 11 13
6 3 3 4 3 2 2 1 2 3 5 4 5 8 9 8 9 10 9 10 10 10 12 11 7 7 10 9 8 6 9 15 20 23 24 25 25 24 22 20 20 20 18 18 18 18 18 18 16 16 15 15 15 15 15 14 14 14 14 14 14 14 13 13 14 13 12 11 12 12 12 13 12 12 12 11 12 13 12 12 12 14 14 15 15 15 14 13 13 13 12 12 13 12 11 11 13
4 4 4 4 2 2 1 2 2 4 7 5 6 8 8 9 9 8 9 10 11 11 12 10 7 10 11 9 6 6 13 19 22 24 24 25 24 22 21 20 19 19 18 18 18 18 18 17 16 16 15 15 15 15 15 14 13 14 14 14 14 13 13 13 13 13 12 11 12 12 13 13 13 13 13 12 13 13 13 12 13 14 14 14 15 15 14 13 12 11 12 12 12 12 11 11 12
3 2 4 4 2 2 2 2 2 5 7 6 8 9 7 9 8 8 9 11 11 11 12 9 8 10 9 8 5 9 16 21 23 25 24 24 23 21 20 20 19 18 18 18 18 17 18 17 16 15 15 15 15 14 14 13 13 13 13 13 13 13 12 12 12 13 12 12 12 13 13 13 13 13 13 13 13 13 13 13 13 13 13 14 14 15 14 13 11 11 12 12 11 11 11 11 12
2 2 4 3 1 2 3 1 2 4 6 6 9 9 8 8 8 8 8 10 11 11 11 8 8 8 7 8 7 10 16 22 24 24 24 23 22 21 20 20 19 18 17 17 17 17 17 17 16 15 15 15 14 14 13 13 13 13 13 13 12 12 12 12 12 13 13 12 13 13 13 13 12 13 13 12 13 13 13 12 13 13 13 13 14 14 13 12 11 11 12 12 11 11 11 11 12
4 3 4 3 1 2 3 1 3 4 5 8 9 9 8 7 7 8 7 10 9 8 10 8 8 8 7 8 7 9 15 24 26 25 24 22 21 20 19 20 19 18 17 16 17 17 17 16 16 16 16 15 15 14 14 13 13 13 13 13 12 11 12 12 13 13 14 13 13 13 12 12 12 12 13 13 13 13 13 12 12 12 12 13 13 13 13 12 11 11 11 11 11 11 11 11 11
4 3 4 3 3 2 2 1 2 3 6 9 10 10 9 5 7 8 7 8 7 7 9 9 7 5 8 10 9 11 20 27 27 25 24 22 21 20 19 19 18 18 17 16 16 16 16 16 16 16 16 15 15 14 13 14 13 13 12 12 12 12 12 12 13 13 14 13 13 13 12 12 13 13 13 13 13 13 13 13 13 13 13 13 13 12 12 12 12 11 11 11 11 10 10 10 10
4 4 4 3 3 2 2 2 1 2 6 10 11 11 9 7 7 7 5 5 7 9 8 8 6 1 5 10 12 19 26 29 27 26 24 22 21 19 19 18 18 18 16 16 16 15 15 15 16 15 15 15 14 13 13 14 13 12 12 12 12 12 12 12 13 13 13 13 13 13 12 13 13 13 12 13 13 13 13 13 13 13 13 13 12 12 12 12 11 11 11 11 11 11 10 9 10
3 4 4 4 3 1 1 1 1 2 7 10 12 11 9 9 7 5 6 6 8 10 6 6 5 1 3 9 18 27 30 30 29 26 24 23 21 20 19 18 18 18 16 16 15 15 15 15 15 15 14 13 13 13 13 14 13 12 12 12 11 11 12 11 12 12 12 12 12 12 12 11 11 11 12 12 13 13 13 13 13 13 13 13 12 12 11 11 10 10 10 10 11 10 9 9 10
4 4 4 4 2 1 3 5 4 1 6 9 12 11 9 10 9 6 7 8 9 9 6 7 6 4 7 14 23 29 31 31 30 28 25 23 20 20 20 19 19 18 17 17 15 15 15 15 15 14 14 13 13 13 13 13 13 13 12 11 11 11 11 11 11 11 11 11 11 10 10 10 10 10 10 11 12 13 13 12 13 12 12 12 12 12 11 11 10 9 10 10 10 9 8 10 11
6 4 4 4 1 3 3 4 4 2 3 7 10 11 9 9 10 8 9 10 11 10 9 9 9 9 11 18 25 29 31 30 30 29 26 23 22 21 20 20 19 19 18 17 17 16 15 15 15 14 14 13 13 12 12 13 13 12 11 11 10 10 10 10 10 10 10 10 9 9 9 9 9 9 10 11 12 13 13 12 12 12 12 12 12 12 11 11 9 8 9 9 10 8 7 9 10
7 5 5 2 2 2 2 1 3 4 2 5 9 9 8 8 9 8 8 10 11 9 10 11 11 13 14 18 24 29 30 29 29 29 27 25 25 23 20 20 20 19 19 18 17 16 15 15 15 15 14 13 12 11 11 12 12 11 11 10 10 10 10 9 9 9 9 9 9 8 9 9 9 10 11 11 11 11 12 12 12 11 11 12 12 11 11 11 9 8 9 9 8 6 7 9 9
6 7 6 1 2 2 3 2 3 3 2 3 7 8 9 8 8 8 8 9 9 9 10 12 13 16 17 19 23 28 29 29 29 28 28 27 25 23 20 20 19 19 18 17 17 17 16 16 15 15 14 13 12 11 11 11 11 10 10 10 10 10 9 9 9 9 8 9 8 8 9 9 9 9 9 9 8 9 10 10 10 9 9 10 10 9 9 9 8 8 7 7 6 5 6 8 7
5 8 7 1 3 3 4 4 3 3 3 3 6 7 7 7 9 9 10 8 4 6 11 11 15 19 20 22 24 26 27 27 28 28 28 27 25 23 21 20 19 19 17 17 17 17 17 16 15 15 14 14 12 11 10 11 11 10 10 10 10 9 9 9 8 8 8 8 7 8 9 8 8 8 8 8 8 8 8 8 8 8 8 8 8 7 7 7 7 6 6 6 6 6 7 6 6
7 8 8 5 6 3 3 4 3 2 1 2 4 6 6 8 9 9 11 6 4 5 11 13 15 20 23 25 25 25 25 25 27 29 29 27 26 24 22 21 20 19 17 17 18 17 18 17 16 15 15 14 12 11 10 10 10 9 10 10 9 9 8 8 8 8 8 7 7 7 7 8 8 8 8 7 7 7 7 7 8 7 7 7 6 6 6 6 6 6 6 6 5 6 6 6 6
9 7 7 6 7 6 5 5 4 4 3 2 2 4 7 9 8 8 10 7 4 7 11 14 17 20 23 24 24 24 25 26 27 29 28 26 26 24 22 21 20 19 18 18 18 18 18 18 17 16 15 14 13 11 10 10 10 9 10 9 9 8 8 8 8 8 7 6 6 6 6 7 7 7 8 7 7 7 7 7 7 7 6 6 6 6 6 6 6 5 5 5 5 5 5 5 5
13 11 8 5 7 7 7 7 6 6 4 3 4 5 8 9 7 7 9 8 4 9 13 15 17 20 21 22 23 23 23 26 27 27 26 25 25 24 22 21 20 20 19 19 18 18 19 18 18 16 15 14 13 12 11 10 10 9 9 9 8 8 7 7 7 8 7 6 6 6 5 6 6 7 7 6 7 6 6 6 6 6 6 6 5 6 5 5 5 5 4 4 4 4 5 5 5
10 14 11 7 7 6 7 8 8 6 4 3 5 7 7 8 8 6 10 10 7 11 15 17 18 19 19 20 22 22 23 25 27 28 26 25 25 25 23 22 21 21 20 20 19 18 19 19 18 17 16 15 14 13 12 11 10 10 9 9 8 8 7 7 7 7 7 7 6 6 5 5 5 6 6 6 6 6 6 5 5 6 5 5 5 5 5 4 4 4 3 3 4 4 4 4 4
2 8 12 12 12 9 8 9 8 7 6 6 7 7 6 8 8 6 10 13 12 13 15 17 18 18 19 19 20 21 22 25 27 28 26 25 26 25 24 23 22 21 20 20 19 19 19 19 19 18 16 15 14 13 12 11 10 10 9 8 8 8 7 7 7 7 7 6 6 6 5 5 4 5 6 5 5 5 5 5 5 5 5 5 4 5 4 4 4 3 2 2 3 2 3 3 3
4 5 8 12 14 12 13 13 11 8 7 8 9 7 7 9 9 7 9 15 14 15 16 17 17 16 18 19 19 18 19 24 27 26 26 26 26 26 25 24 23 22 22 22 20 19 20 20 19 18 17 16 15 13 12 11 10 10 9 8 8 8 7 7 7 6 6 6 6 6 5 5 4 5 5 5 4 4 4 4 4 4 4 4 4 4 4 3 3 2 2 2 2 1 1 1 2
9 7 8 9 10 12 14 14 12 10 8 7 8 8 8 10 11 9 9 14 15 15 15 16 16 15 16 17 17 16 18 23 25 25 27 27 26 26 26 25 24 23 22 22 20 20 21 20 19 19 18 17 16 14 13 12 11 10 9 9 8 8 7 7 7 7 6 6 6 7 6 5 5 4 5 4 4 4 3 3 3 3 3 4 4 4 3 3 2 2 2 1 1 1 0 0 0
10 10 9 8 8 11 14 14 13 12 8 8 8 6 6 9 13 11 11 15 15 15 15 15 15 14 15 16 15 16 18 22 24 25 27 26 25 26 26 25 25 23 21 22 22 21 21 20 19 19 18 18 17 15 13 12 12 11 10 10 9 9 8 8 7 7 6 6 6 7 7 6 5 4 4 4 3 3 3 3 3 3 3 3 3 3 2 2 2 2 1 1 1 1 0 0 0
9 10 8 8 8 8 12 14 14 13 9 10 9 6 4 8 13 14 13 16 16 14 15 15 14 14 15 15 15 16 18 21 25 26 27 27 25 25 26 26 25 24 22 23 23 22 22 20 19 19 19 18 17 16 14 13 12 11 11 10 10 10 9 8 8 8 7 7 7 7 7 6 6 5 4 3 3 2 3 3 3 3 3 3 2 2 1 2 2 2 1 1 1 1 1 1 0
8 8 8 9 8 7 10 13 15 14 11 12 12 7 4 7 12 15 15 16 17 15 15 16 16 16 16 15 16 15 17 21 26 27 27 27 26 25 26 26 26 25 23 23 24 23 22 21 20 19 20 19 17 16 14 13 12 11 10 9 10 10 9 8 8 8 8 8 7 7 8 8 7 5 4 4 3 2 2 2 3 2 2 2 2 1 1 1 2 2 2 2 2 2 2 1 0
8 9 9 10 11 9 9 12 15 15 11 13 14 8 3 5 9 15 16 17 17 15 15 17 17 17 16 15 15 15 16 19 22 25 28 28 26 25 26 26 27 26 24 24 24 24 23 21 21 19 20 20 18 16 15 13 12 11 10 9 9 10 9 8 8 8 8 8 8 7 8 8 7 6 6 5 3 2 2 2 2 3 2 2 2 1 0 1 1 2 2 2 2 2 3 2 1
8 9 9 10 13 12 9 11 15 16 13 12 15 12 6 6 8 13 16 16 17 15 16 18 16 16 16 15 15 15 16 17 19 24 28 28 26 26 25 26 27 25 24 24 25 24 23 22 21 19 19 20 18 17 15 13 12 11 11 10 10 9 9 9 9 9 8 8 8 7 8 8 7 7 6 5 4 3 2 2 1 2 2 2 1 1 0 1 1 1 2 2 2 3 3 2 1
11 11 10 11 11 12 13 10 11 16 16 13 14 14 11 10 10 13 14 15 16 15 15 16 17 17 16 15 15 16 17 18 19 24 29 28 27 26 25 25 26 26 24 24 24 24 23 22 21 19 19 19 18 17 16 14 12 12 11 11 11 10 10 9 9 9 9 8 8 7 8 8 7 7 6 5 4 3 3 3 2 2 3 2 2 2 1 0 1 1 2 2 2 2 3 3 1
11 13 11 12 10 11 14 10 7 13 16 15 15 14 13 14 13 12 12 14 15 15 14 14 15 15 15 15 15 16 17 18 20 26 29 28 27 26 25 25 26 26 24 24 25 24 23 22 21 20 19 19 19 17 16 15 13 13 12 12 12 12 11 10 10 9 9 9 8 7 8 8 8 8 7 6 5 4 4 3 3 3 3 3 2 2 1 0 1 1 1 2 2 2 3 2 1
8 11 11 12 11 10 14 13 8 9 11 14 16 14 14 15 13 11 11 13 14 14 14 14 15 15 15 16 16 17 17 16 19 25 27 28 27 27 26 25 26 26 24 25 26 25 25 23 22 21 20 20 19 19 18 17 16 15 14 14 14 13 12 11 11 10 10 9 9 8 8 9 9 9 8 7 6 5 5 4 4 4 4 3 3 2 1 0 1 1 1 1 1 2 3 1 1
7 9 9 10 11 10 12 14 10 8 9 11 15 16 15 15 14 12 12 13 14 15 15 15 17 17 15 17 18 18 15 14 17 21 25 27 27 27 26 25 26 27 26 26 27 26 25 25 23 22 21 20 20 19 19 18 17 16 15 15 15 13 13 13 12 12 11 9 9 9 9 9 10 10 9 8 8 7 6 5 4 4 4 4 3 3 2 1 1 1 1 1 1 0 1 1 1
9 8 8 8 9 9 11 11 8 7 8 9 13 14 13 15 16 14 13 13 13 14 16 16 17 17 16 17 17 17 16 16 18 20 24 28 28 28 27 25 27 27 27 27 27 26 26 25 24 22 21 21 20 20 19 19 18 16 15 15 15 13 12 13 12 11 11 11 10 10 11 11 11 11 10 9 9 8 8 6 5 5 5 4 4 3 3 3 3 2 2 2 1 1 1 0 1
10 9 9 8 9 10 10 10 10 9 9 10 13 11 11 13 15 15 13 13 12 13 16 16 16 17 17 17 16 17 19 18 19 20 22 26 28 29 28 26 27 27 27 27 28 27 26 26 25 24 23 21 21 21 20 19 17 16 14 12 13 12 9 10 11 10 11 12 11 10 12 12 12 11 11 10 10 10 9 8 7 6 5 5 5 4 5 4 3 3 3 2 2 2 1 1 1
12 13 11 10 9 11 10 6 6 10 11 12 13 10 9 12 14 15 12 13 14 13 15 16 16 17 15 15 16 17 19 18 19 20 21 23 26 28 29 27 27 27 28 28 28 28 27 27 27 26 24 22 21 21 21 19 17 16 15 12 12 11 9 9 11 11 12 13 13 12 12 13 13 12 11 11 10 10 10 9 8 7 6 6 6 5 5 4 4 3 3 2 2 3 0 0 1
11 15 16 15 11 11 11 8 5 7 10 13 14 10 9 12 17 16 12 13 14 13 15 17 16 15 15 15 16 17 18 18 19 20 20 22 25 28 29 29 28 28 28 28 28 28 27 27 28 27 25 24 22 21 22 20 18 18 18 16 15 14 12 13 14 15 15 14 14 13 12 13 14 13 12 11 11 11 10 10 9 8 7 7 7 6 5 4 4 4 3 2 2 2 2 2 1
9 11 16 19 16 12 10 10 9 7 8 11 15 13 9 11 16 18 16 15 16 15 15 17 15 15 15 15 15 16 17 18 18 19 20 21 25 27 28 30 30 29 28 28 27 28 27 27 28 28 26 25 23 23 23 22 21 21 20 19 18 17 16 16 16 16 15 14 14 13 13 13 14 15 13 12 12 11 11 11 10 9 8 8 7 7 7 6 5 4 3 3 2 1 2 2 2
9 7 11 17 19 17 13 10 9 8 9 9 12 12 11 10 13 17 19 19 17 17 16 16 16 16 17 16 16 17 18 18 18 19 21 22 24 27 29 30 30 29 28 28 27 28 28 27 28 28 27 25 25 25 25 25 24 21 20 20 19 18 18 16 15 15 14 13 13 14 13 13 14 15 14 13 13 13 12 11 11 10 9 8 8 8 8 7 5 4 4 4 3 2 2 2 3
10 6 6 11 15 18 17 12 10 9 9 10 12 12 10 10 10 11 15 18 18 18 17 17 16 18 18 18 18 19 19 19 19 20 21 22 25 29 30 30 30 29 29 29 28 27 28 28 27 29 28 26 26 26 26 27 25 21 20 20 19 18 18 16 15 15 14 13 13 14 14 13 13 14 15 14 13 13 13 12 11 11 10 9 8 8 8 7 7 6 5 5 4 4 3 3 3
11 8 5 8 11 14 16 13 10 10 11 13 14 14 10 9 11 11 12 14 15 16 15 16 16 18 18 18 18 19 18 18 19 20 20 23 27 30 30 30 30 30 29 28 28 27 27 28 28 29 29 28 28 28 28 29 27 23 21 20 19 19 18 17 15 15 15 15 14 14 15 14 13 13 15 15 15 14 14 13 11 11 11 10 9 8 8 8 8 8 7 6 6 5 4 4 4
12 11 9 9 10 10 11 11 10 10 12 15 17 17 13 10 11 12 12 12 14 14 13 14 16 18 18 17 17 18 17 16 17 18 19 23 27 29 29 29 30 30 28 28 28 28 28 28 28 29 30 29 28 28 30 30 28 26 22 21 21 21 19 18 17 16 16 16 16 16 15 15 15 14 14 15 16 15 15 14 13 12 11 10 10 9 8 8 8 8 8 8 8 7 6 5 5
12 11 9 8 8 8 8 9 10 12 12 13 17 19 17 13 10 10 13 13 15 15 14 15 17 17 16 16 16 16 17 17 17 17 18 21 23 25 28 29 29 30 29 29 29 28 28 28 29 29 30 30 28 29 31 30 28 26 22 20 22 22 21 20 20 19 18 18 17 17 16 15 15 15 15 15 15 15 15 14 14 13 12 11 11 10 9 8 7 7 8 8 8 8 7 7 6
12 10 9 9 8 8 9 9 11 12 12 12 16 18 17 14 12 13 14 14 14 15 15 15 16 16 16 16 16 15 16 17 17 17 17 19 19 22 26 29 29 30 31 31 30 29 29 29 30 30 31 31 29 30 31 29 28 26 23 22 22 21 22 21 21 20 19 19 18 17 17 16 16 17 17 16 15 15 14 14 14 14 13 12 12 11 10 9 8 7 7 8 9 9 9 8 8
13 12 10 10 9 9 10 10 10 10 11 13 16 16 14 13 13 15 18 15 11 12 15 15 14 14 15 16 16 15 16 17 16 16 17 18 19 21 26 29 30 31 32 32 31 30 29 29 31 31 30 31 31 31 30 28 28 27 25 24 22 21 22 21 21 21 20 20 19 19 19 18 18 18 18 17 16 15 14 14 15 15 14 13 13 13 12 11 10 9 8 9 9 9 9 9 9
13 13 11 11 10 9 9 8 9 9 9 13 17 14 11 10 9 12 17 17 14 12 12 12 12 12 13 13 14 15 16 16 16 17 18 19 21 24 27 29 30 31 32 32 31 31 30 29 31 31 31 31 31 30 29 29 29 27 26 26 23 22 22 21 21 21 20 21 20 20 21 20 19 18 17 17 16 16 15 14 14 15 15 15 14 14 13 12 12 11 10 9 9 9 10 11 10
11 12 12 12 11 9 7 7 8 8 7 10 13 10 7 6 5 7 10 14 17 17 14 14 13 12 12 12 13 14 14 16 16 17 19 20 22 25 27 28 29 30 32 33 32 32 31 30 30 32 32 31 31 30 29 29 28 28 28 27 25 23 22 21 21 21 21 21 21 21 21 21 20 17 16 16 16 16 16 15 14 15 15 15 15 15 14 12 12 12 11 10 10 10 10 11 11
8 11 12 11 12 11 9 9 9 8 8 8 9 9 8 7 8 10 11 11 14 17 18 19 18 17 15 13 12 13 13 15 16 17 18 20 21 24 28 29 30 31 32 34 34 33 33 31 30 31 31 31 31 31 30 29 28 29 29 27 26 25 24 22 22 22 22 21 20 21 20 20 20 18 16 15 16 16 16 15 15 14 14 15 15 15 15 14 13 12 12 11 11 10 10 11 11
8 10 12 11 12 12 9 8 9 9 10 8 9 12 11 9 8 11 17 17 14 15 16 17 18 19 18 16 15 15 14 15 17 18 19 19 20 24 28 30 32 34 35 35 34 33 32 31 31 32 32 32 32 31 31 30 29 30 29 28 28 27 25 24 23 22 22 21 20 21 20 20 20 19 18 16 15 16 16 16 15 14 14 15 15 15 15 14 14 13 13 12 12 11 11 11 11
15 10 10 11 11 11 10 8 9 10 10 8 11 14 12 11 8 7 15 21 20 19 17 17 18 17 17 17 17 18 17 15 16 17 17 18 19 23 28 30 33 35 34 34 34 33 32 32 31 32 34 34 33 32 31 30 30 30 28 27 29 28 27 25 23 22 21 21 21 21 21 20 19 19 18 17 16 16 15 15 16 15 15 14 15 15 15 14 14 14 13 13 12 12 12 11 11
17 14 11 11 10 10 10 9 8 9 8 8 10 12 10 9 10 9 10 14 18 19 18 17 18 17 15 15 16 17 17 15 15 16 17 18 20 24 30 32 33 34 34 34 35 35 34 33 32 32 32 32 33 32 32 32 31 29 27 28 29 29 27 26 24 23 22 22 22 22 21 21 20 19 18 19 18 17 16 15 15 15 15 15 15 15 15 15 14 14 14 13 12 12 12 12 11
15 14 12 11 10 10 11 10 9 9 8 7 8 8 7 6 9 12 10 9 11 14 15 15 16 17 16 15 15 15 15 15 16 16 17 19 21 25 30 32 32 33 33 33 34 35 34 33 32 33 33 33 33 34 33 32 31 30 29 30 30 30 28 26 25 24 24 22 22 22 21 20 20 19 19 19 19 19 18 17 16 15 16 16 15 15 15 15 15 15 14 14 13 13 13 12 12
8 12 15 15 12 11 12 11 11 10 9 8 7 6 5 4 5 9 10 9 9 10 12 12 14 16 16 16 16 16 15 15 16 17 18 19 19 22 28 30 30 30 31 32 33 34 34 34 33 33 33 33 34 34 33 32 31 31 31 31 30 29 29 28 26 25 24 23 22 22 21 20 20 20 20 19 19 19 19 19 18 17 16 16 16 16 15 15 15 15 15 15 14 14 14 13 13
Wind_Direction
140 149 147 155 162 172 192 210 239 196 228 239 202 166 119 81 102 128 127 134 132 130 143 140 144 144 138 134 125 87 58 70 19 88 115 122 135 139 143 137 135 134 130 128 127 127 123 123 124 124 124 125 126 126 127 126 125 124 124 125 127 128 129 129 129 130 132 133 134 133 132 132 131 131 128 122 117 117 118 114 108 105 102 99 99 96 95 91 91 99 101 100 102 101 98 100 101
147 149 149 154 157 187 193 200 259 184 220 229 139 83 100 129 152 138 130 144 126 132 153 142 146 145 115 118 121 103 81 56 50 88 107 128 132 136 143 139 137 134 130 130 128 125 122 122 122 122 123 123 124 124 124 123 124 124 126 128 129 131 131 131 131 130 132 131 129 127 126 127 128 128 125 121 117 117 115 111 109 108 104 102 99 97 95 90 93 98 98 99 100 98 97 98 97
153 150 151 154 162 211 218 202 263 262 234 197 104 82 101 137 135 121 128 132 121 138 150 142 145 142 141 139 120 96 97 72 98 107 121 135 135 142 145 141 138 133 130 129 127 124 122 125 124 123 123 122 122 122 122 123 124 125 127 127 126 127 127 127 126 126 126 123 122 121 121 123 124 124 121 118 116 116 113 112 110 108 106 104 101 99 94 89 94 96 96 98 97 97 97 98 99
153 156 163 167 184 206 227 219 258 274 235 91 95 93 100 121 116 118 124 126 133 147 146 144 140 127 152 132 90 86 103 96 116 121 134 142 141 145 145 141 138 133 130 129 127 124 126 129 126 125 123 121 121 121 122 122 122 123 122 122 122 122 122 122 120 121 119 118 118 118 121 124 124 121 118 117 117 117 116 114 110 108 107 104 101 97 90 90 96 98 101 103 99 97 98 100 99
152 161 177 199 232 186 253 249 248 263 12 39 83 93 103 116 118 124 127 133 146 151 147 151 135 106 101 88 60 108 105 106 126 133 138 140 141 145 145 141 139 136 132 130 129 125 129 132 129 127 125 123 123 123 121 120 119 119 119 120 120 120 120 119 117 117 116 117 117 118 121 121 122 121 118 117 119 119 118 116 112 110 108 105 101 95 89 92 99 104 107 102 97 96 95 96 93
153 158 181 233 265 359 279 244 237 257 57 20 53 88 110 120 122 126 128 139 149 153 151 152 139 135 108 73 50 79 89 119 135 141 140 138 143 147 145 143 141 138 133 131 130 127 132 135 132 129 126 124 122 121 120 119 119 119 119 120 120 120 119 118 117 115 115 116 115 116 115 114 117 119 118 117 117 118 117 115 112 109 107 105 99 92 91 93 98 103 105 98 95 95 93 93 92
162 161 178 225 228 231 263 260 287 37 71 42 37 86 120 128 128 129 134 143 150 158 157 146 140 134 112 110 90 75 78 121 137 142 141 140 144 146 146 145 141 137 133 131 129 129 135 136 133 130 126 124 120 119 120 121 121 121 121 121 120 120 119 118 116 114 114 113 112 113 113 113 114 115 116 116 117 115 114 111 109 108 104 101 96 91 91 93 95 96 96 95 96 96 95 95 95
178 195 198 228 225 199 252 278 23 49 81 93 66 84 124 134 139 140 142 147 152 161 160 153 149 120 105 140 109 88 101 126 137 138 140 142 144 147 147 144 140 139 135 131 130 132 137 135 132 130 126 124 123 122 123 124 124 124 124 123 121 119 118 116 113 112 113 114 115 114 113 112 111 112 113 114 115 112 111 110 107 105 103 99 96 94 95 96 97 95 93 94 96 98 99 98 98
190 228 221 243 254 209 241 282 89 82 92 110 100 106 131 145 152 149 148 148 152 162 161 164 164 122 119 127 99 102 119 133 136 138 144 145 146 148 147 145 142 140 137 133 132 134 137 135 132 130 127 125 125 126 126 126 126 125 124 123 120 117 115 114 112 110 111 112 113 114 114 112 111 113 111 110 109 107 107 108 106 104 102 100 98 97 100 102 102 98 94 96 101 105 106 104 102
196 210 235 258 268 251 222 116 101 102 96 92 105 126 144 155 159 155 153 147 152 161 159 165 160 124 129 119 102 108 126 139 140 141 148 147 148 148 147 146 142 141 138 136 135 135 137 137 134 131 130 129 129 128 128 126 125 123 121 120 117 116 114 113 112 109 109 106 106 111 113 113 112 111 111 111 108 107 109 108 107 106 104 103 102 101 103 105 102 97 95 99 105 106 108 108 103
215 201 231 260 269 285 334 71 79 95 107 108 113 135 154 157 158 160 152 142 149 152 152 166 149 127 128 114 100 111 133 147 147 146 149 149 150 149 147 145 143 142 139 138 137 136 137 139 137 135 132 132 132 130 129 126 124 122 119 117 115 115 115 114 114 112 111 107 107 108 109 111 110 111 113 114 111 109 110 111 109 107 106 107 107 106 105 105 101 96 97 99 101 104 108 108 102
247 220 236 264 301 317 338 14 68 97 124 134 133 148 161 156 158 160 149 139 146 147 156 172 148 138 132 116 109 128 145 153 150 149 149 150 151 150 148 145 146 144 140 139 138 138 139 141 140 138 136 134 134 132 130 128 125 122 118 117 115 116 116 116 116 114 113 111 108 103 105 106 104 107 110 110 107 106 107 108 108 107 107 108 107 106 107 107 101 94 97 98 100 106 107 104 100
235 259 258 270 326 306 303 316 107 129 141 133 140 152 159 162 159 151 143 140 151 152 158 163 147 152 127 109 123 141 153 154 151 151 150 152 153 151 149 148 149 146 143 141 139 141 142 144 143 140 140 139 137 134 131 128 126 123 120 118 116 116 116 117 117 116 114 112 109 104 103 101 99 101 103 105 103 103 103 104 107 108 107 106 106 107 108 107 102 95 97 100 99 100 99 96 98
223 255 275 288 301 266 275 240 142 164 133 119 138 147 164 170 145 142 145 146 150 143 140 145 152 152 122 121 139 152 158 154 152 152 152 152 151 151 150 150 150 148 146 144 143 144 147 147 145 143 144 142 139 136 133 130 128 124 123 121 119 117 116 116 117 116 114 114 112 109 107 105 105 105 106 108 106 106 105 105 105 106 106 106 106 107 108 109 104 96 92 90 88 89 95 97 97
238 277 277 279 267 234 243 212 154 174 118 125 145 150 166 154 136 152 162 152 125 113 127 144 167 154 149 163 160 158 159 155 154 154 153 151 149 150 150 151 151 151 150 148 147 148 151 149 147 146 145 145 140 138 137 133 129 126 125 124 123 121 118 117 118 117 116 117 116 114 114 112 110 110 112 111 109 109 106 105 106 107 108 107 107 107 108 108 106 99 91 87 88 89 90 89 87
244 285 270 261 259 212 180 185 184 171 116 131 151 157 163 139 152 162 149 145 119 133 148 152 172 141 156 170 156 155 157 155 156 156 154 150 149 149 150 153 154 154 154 152 152 153 153 150 149 149 147 145 138 137 138 135 131 129 129 127 127 124 121 121 120 119 118 118 118 116 112 108 106 107 109 109 109 108 106 106 107 108 108 107 107 108 108 108 108 102 97 94 91 86 80 77 79
231 259 254 250 238 185 142 101 62 123 111 133 157 168 164 141 157 149 132 150 137 151 158 140 154 105 125 145 145 150 155 156 157 158 157 153 152 153 154 156 157 158 159 157 157 156 155 153 152 149 148 143 136 139 138 135 135 133 133 131 130 128 126 124 121 120 120 119 117 112 107 106 107 107 106 107 106 105 106 106 106 107 106 107 106 108 107 107 106 103 102 99 93 89 85 83 83
218 229 239 247 226 113 38 38 48 118 122 140 168 177 171 153 158 158 160 162 147 152 143 129 128 99 103 126 141 149 154 158 160 161 160 158 158 159 160 161 162 162 163 162 160 160 158 155 155 152 149 145 141 141 139 138 139 138 137 134 132 131 129 124 123 125 122 119 116 111 110 112 111 109 108 107 107 107 107 105 107 108 107 108 108 107 105 103 102 101 99 95 96 95 88 80 73
220 229 238 243 127 76 41 25 37 23 86 140 173 183 183 163 158 172 178 161 156 160 147 142 127 115 119 133 146 151 155 160 163 164 163 163 165 163 163 163 165 164 166 166 162 162 161 158 157 155 152 149 146 142 142 143 143 142 140 137 135 134 133 130 131 131 126 124 122 119 117 114 112 110 113 114 114 113 111 110 110 110 110 109 108 106 106 107 104 99 92 88 94 97 103 95 78
220 232 243 224 109 91 93 10 26 13 18 157 169 182 192 167 158 183 184 163 170 174 156 157 146 137 139 144 152 155 158 163 166 167 166 168 169 168 166 164 166 166 167 167 163 163 163 162 160 158 155 153 151 148 147 147 148 148 145 143 140 140 140 137 134 131 131 131 129 126 121 117 114 113 115 115 113 115 116 116 111 108 110 106 103 104 106 108 109 103 95 97 102 105 127 124 111
209 220 248 76 133 206 126 81 63 40 16 153 158 177 191 171 171 192 184 173 183 184 167 166 154 145 147 150 156 160 162 166 169 171 170 172 172 170 170 167 167 166 167 167 164 163 164 165 163 160 158 157 158 155 152 152 153 151 150 148 145 146 146 142 139 134 134 133 131 128 124 120 118 119 118 115 115 120 121 117 111 109 110 102 99 105 105 104 113 116 107 112 119 112 116 114 113
231 221 247 281 197 204 124 117 92 48 32 121 162 183 187 174 188 200 194 190 176 170 166 162 154 148 152 155 159 164 166 169 172 173 174 174 174 172 171 169 167 165 168 169 166 164 164 167 166 162 161 162 163 160 157 155 157 155 154 152 149 150 148 147 145 140 139 136 133 130 128 125 123 124 121 120 120 122 121 116 113 112 110 104 102 106 105 104 113 118 112 112 113 106 102 99 99
245 225 232 236 225 225 169 165 146 332 331 154 174 181 182 186 197 200 205 203 70 117 153 149 151 152 154 157 162 167 170 172 174 176 176 176 176 174 171 171 169 168 171 172 169 166 165 167 168 165 164 166 166 165 162 158 162 161 156 156 154 152 151 153 149 145 145 141 136 136 135 131 127 125 122 121 120 119 118 114 113 112 110 107 103 103 101 100 101 101 103 103 104 105 104 106 104
238 246 235 229 232 230 221 216 228 271 266 225 207 188 194 200 200 188 205 218 88 111 140 142 147 152 155 159 165 169 171 174 175 177 177 177 178 176 173 173 170 170 172 173 171 168 168 168 168 168 167 169 169 170 169 165 167 164 159 160 159 155 156 155 150 148 148 145 142 142 138 134 129 125 124 123 118 117 115 114 115 114 111 108 102 99 94 91 91 91 96 100 102 104 104 105 103
228 245 250 241 242 235 235 238 237 248 250 239 223 214 207 203 207 181 193 219 161 131 137 143 148 153 159 163 166 170 172 175 176 177 177 179 180 177 176 175 173 173 174 174 172 171 171 169 168 169 170 171 172 173 176 172 169 169 166 165 164 160 160 156 151 150 150 151 148 143 137 134 131 125 124 122 118 117 114 115 116 115 112 109 105 99 95 90 90 88 90 98 101 101 103 103 98
219 237 247 250 248 237 237 234 228 236 233 226 218 217 209 198 214 197 184 200 175 147 145 148 153 157 163 166 168 170 173 175 177 177 178 180 180 179 179 178 177 176 176 175 174 173 172 171 171 171 171 173 175 177 179 177 173 173 171 169 168 165 164 159 154 154 154 153 151 151 142 134 130 126 124 120 118 118 116 117 114 117 116 114 107 100 100 96 93 89 86 93 96 100 102 100 95
213 243 251 252 256 251 245 242 235 240 234 230 230 220 204 185 204 206 176 179 169 156 155 154 158 163 165 168 169 171 175 177 177 177 177 180 182 182 180 180 179 177 178 178 176 175 173 174 174 173 172 173 176 180 181 181 177 175 174 172 171 170 170 165 162 160 156 152 153 156 147 137 129 124 127 123 122 120 119 119 113 118 116 113 108 101 104 97 92 88 78 83 83 92 96 91 87
263 270 264 249 252 252 246 246 238 237 231 221 228 229 210 184 201 217 163 162 167 164 163 160 164 166 166 170 170 173 178 176 177 178 180 182 183 184 183 182 181 179 180 180 177 175 175 176 175 174 175 174 177 180 179 181 179 177 176 174 174 174 174 171 170 166 161 157 154 155 153 148 137 128 131 125 122 122 117 116 113 114 111 113 110 101 104 99 95 87 68 63 62 63 83 91 80
253 261 272 257 247 243 235 233 226 223 215 197 213 223 208 192 204 212 157 156 170 171 168 166 168 167 167 172 170 174 179 176 179 183 183 184 184 185 185 185 182 180 181 180 177 176 176 177 176 176 177 178 180 180 178 179 179 178 179 177 176 176 178 179 178 172 167 163 160 162 162 159 149 137 136 128 125 125 117 116 114 115 115 113 112 107 108 103 94 87 76 55 52 34 339 83 106
243 242 257 264 252 237 222 219 215 214 207 187 206 222 213 209 206 196 161 164 175 173 173 172 171 170 170 173 172 177 179 179 183 185 185 184 185 186 186 186 184 182 180 179 179 177 176 176 176 178 180 181 183 183 180 179 179 179 179 179 177 178 182 182 182 179 173 168 169 172 172 172 167 152 144 138 134 135 128 125 119 117 120 118 117 117 110 101 94 89 88 76 60 55 19 330 264
230 230 235 246 252 232 207 208 207 204 197 189 211 229 212 216 203 185 168 173 179 177 178 176 175 173 173 175 175 179 181 184 186 186 186 185 185 186 186 185 185 184 180 179 180 178 176 177 176 178 180 182 184 185 183 181 181 179 180 180 178 180 183 185 184 182 179 176 175 179 182 182 181 173 160 151 144 149 144 135 131 123 127 130 119 116 96 89 94 84 65 57 60 46 17 329 259
216 220 222 221 238 233 198 198 204 205 193 187 213 228 187 212 200 175 171 181 182 182 182 180 180 178 176 177 178 181 182 186 188 187 187 186 185 186 186 186 185 185 182 180 179 178 177 177 177 178 180 182 184 186 186 185 184 183 184 182 182 182 184 187 186 183 182 182 180 183 189 189 189 186 177 170 161 162 159 144 146 139 145 149 121 116 110 78 75 71 48 22 36 31 360 352 8
209 217 224 212 216 228 205 192 199 208 201 191 211 227 176 209 201 171 175 188 187 188 187 183 184 180 179 180 181 182 183 185 189 189 187 187 187 186 186 186 186 186 184 181 179 178 178 176 178 180 180 183 184 185 186 186 187 187 187 186 187 188 190 190 189 187 184 184 185 184 188 192 195 193 188 186 179 175 175 165 155 148 164 174 139 151 127 70 63 77 65 33 31 17 346 358 27
201 211 227 220 214 222 216 193 190 203 214 204 209 221 199 186 190 178 182 190 192 194 190 186 186 183 182 182 183 184 184 186 190 190 188 186 187 186 186 186 187 186 184 183 180 179 179 177 180 181 181 183 184 184 186 187 188 189 192 194 194 196 199 197 194 194 190 189 190 187 189 194 199 201 198 198 193 190 195 200 180 157 178 189 180 201 169 61 40 58 73 64 40 11 349 354 16
204 202 217 222 214 219 220 204 184 197 215 215 210 220 215 196 187 185 187 189 196 200 193 190 187 184 183 183 186 186 187 190 191 190 188 186 187 186 186 186 186 186 185 184 182 180 180 179 180 181 182 183 183 183 185 186 187 191 195 197 198 201 205 204 199 198 197 197 193 192 197 197 203 209 206 206 207 203 203 211 210 194 196 198 205 213 200 144 102 77 81 81 60 30 360 340 329
222 215 216 221 215 218 221 213 180 194 214 220 218 223 221 213 200 189 190 191 199 203 196 192 190 186 185 185 188 188 190 193 191 190 188 186 187 185 185 185 185 187 186 185 183 181 181 180 179 181 183 183 182 182 184 187 189 192 195 196 197 201 204 206 207 203 201 201 198 196 201 202 207 211 209 209 211 209 210 212 211 209 204 205 212 216 227 189 130 121 103 94 73 30 5 339 292
251 235 224 225 224 218 216 214 194 197 221 223 223 228 226 226 217 196 193 196 199 203 198 193 192 190 188 189 190 190 192 192 187 188 189 188 188 186 185 185 186 187 187 186 185 184 184 182 180 182 183 184 183 184 186 189 191 191 194 197 198 199 200 204 207 208 207 204 201 200 202 205 209 212 213 212 212 213 211 211 213 210 206 208 212 221 249 335 92 112 119 127 86 357 6 43 261
245 247 231 226 228 223 218 215 199 203 228 228 224 229 228 230 229 207 191 198 202 200 199 195 194 193 190 191 192 190 189 187 184 186 189 190 189 188 187 186 187 187 188 188 187 186 185 186 185 185 185 186 188 188 187 189 193 194 194 197 199 198 198 202 205 208 210 207 204 205 205 206 210 213 215 216 217 216 211 209 209 207 208 209 210 226 246 260 259 251 238 214 181 28 27 92 208
230 241 239 231 225 227 228 216 197 204 229 233 227 230 231 229 232 223 200 200 205 200 200 197 194 195 193 193 191 187 185 184 184 184 187 190 190 189 188 189 189 189 188 188 188 188 187 189 190 189 188 189 191 191 189 191 195 196 196 197 198 199 200 202 205 207 209 210 209 209 209 209 211 213 216 220 222 220 216 211 206 206 206 202 208 220 226 230 231 231 247 265 276 206 163 56 250
227 232 239 237 223 225 230 211 199 214 231 243 239 236 236 229 230 231 215 204 205 202 203 201 198 199 198 195 190 186 185 185 185 185 185 187 189 189 189 190 190 190 190 189 190 189 189 191 191 191 191 191 193 193 191 191 193 195 196 195 193 195 194 194 199 202 206 211 212 211 210 211 213 215 218 220 222 221 217 212 209 208 204 202 208 213 215 220 220 227 236 240 279 274 138 119 260
225 228 233 238 227 227 238 221 199 219 226 238 248 248 238 226 226 229 218 208 209 203 201 203 204 204 200 195 192 190 188 186 186 186 186 186 188 189 190 190 190 190 192 191 191 191 191 192 190 191 193 194 195 193 191 190 191 193 189 182 180 184 183 184 194 204 208 211 214 214 211 211 214 216 218 219 220 221 219 216 214 212 212 211 211 215 219 221 221 227 233 215 250 277 319 151 240
224 222 227 237 240 232 238 246 234 229 222 217 226 242 240 221 223 226 215 208 212 207 201 203 205 202 199 197 195 193 191 188 188 187 187 188 188 189 189 191 191 192 193 193 193 192 192 191 190 191 193 197 198 195 193 190 192 195 188 180 181 183 189 195 204 211 212 213 215 216 213 212 213 214 217 219 219 221 222 222 222 221 221 218 216 221 224 225 228 225 226 227 234 263 285 295 289
233 214 216 229 241 242 238 243 237 237 240 212 207 231 247 223 220 222 216 211 210 209 205 202 201 197 197 200 196 193 192 190 190 189 188 188 189 190 190 191 193 193 193 192 192 193 192 191 190 190 192 198 200 199 198 194 197 201 195 191 193 193 197 204 209 213 214 214 213 213 214 213 213 214 215 217 218 221 224 225 226 227 226 223 220 221 225 228 232 225 218 228 220 205 237 275 279
237 214 211 221 230 236 238 245 242 243 262 236 207 225 249 237 224 218 216 214 208 207 207 200 199 199 200 201 197 194 194 191 190 190 191 190 189 191 192 193 194 193 191 191 192 192 191 190 189 189 191 195 200 202 201 199 201 202 199 198 199 201 205 206 206 208 210 210 209 209 211 213 213 214 215 216 217 219 223 225 226 227 227 226 222 221 226 230 232 229 214 210 203 194 212 247 267
236 231 230 225 225 231 233 240 245 243 256 247 216 217 238 242 231 219 217 217 209 206 208 202 200 201 202 202 199 197 196 193 191 190 191 190 190 192 193 193 194 194 192 191 192 191 190 189 188 189 191 195 201 203 201 202 202 201 200 199 199 203 207 206 203 203 202 202 204 205 207 211 213 215 216 218 219 218 220 222 224 227 226 224 224 223 226 228 230 231 224 216 207 206 219 234 253
234 233 235 230 227 230 230 232 241 242 245 244 227 217 229 240 229 219 216 217 211 208 210 207 205 204 202 202 201 199 196 194 194 193 191 191 192 192 192 192 193 195 194 192 191 190 189 188 188 190 191 194 200 201 200 202 203 204 204 200 199 202 202 203 202 199 196 196 201 203 205 211 214 217 218 219 221 221 220 221 222 225 225 223 223 223 224 226 227 228 229 229 221 216 216 222 236
230 232 228 228 227 225 227 227 231 239 239 238 233 226 232 243 232 221 218 216 215 214 208 204 206 206 202 202 203 200 195 195 196 194 193 192 192 192 191 192 193 193 193 191 190 189 187 187 188 190 191 192 197 199 200 203 204 206 205 199 201 201 197 197 198 196 194 195 200 204 206 211 215 220 221 220 221 222 221 222 222 224 224 223 223 222 222 223 224 224 225 227 226 225 221 222 237
225 230 223 226 225 215 220 219 217 233 238 231 231 231 234 241 234 226 224 216 217 220 212 204 205 204 202 202 203 200 197 196 195 194 192 190 190 191 192 193 192 191 191 191 191 189 187 187 187 188 190 191 195 199 201 203 205 206 204 200 203 202 197 196 197 197 196 197 202 205 206 208 212 217 220 220 221 221 221 222 223 224 224 224 225 224 225 225 225 224 220 220 223 226 224 223 232
220 223 214 217 216 204 209 210 211 227 234 227 228 229 232 241 240 234 234 224 215 218 216 210 206 201 201 202 200 200 199 196 193 192 191 189 189 190 192 192 190 191 192 192 192 190 188 187 186 187 190 191 194 199 200 201 204 205 203 203 205 203 201 199 200 201 200 201 204 204 204 205 207 212 216 219 220 219 219 219 220 221 222 224 226 227 229 231 230 229 224 222 221 223 224 225 228
214 213 209 212 208 201 207 211 217 228 230 222 224 230 236 243 240 231 234 234 222 217 216 216 213 204 200 201 200 200 200 197 193 193 192 190 190 190 190 190 189 191 192 192 192 191 189 188 187 187 188 189 193 197 196 198 204 205 204 206 206 206 206 203 204 205 204 205 205 205 208 209 209 212 215 216 218 218 219 219 219 221 222 225 228 232 234 235 235 235 234 231 227 226 226 226 230
212 211 213 221 218 214 212 212 218 225 227 215 213 223 234 237 235 225 228 231 227 223 216 212 216 212 205 202 201 201 200 197 194 193 194 192 191 191 190 190 190 190 191 191 191 191 190 189 187 186 186 187 190 192 192 196 202 204 205 207 207 208 209 207 207 208 207 207 207 208 211 213 215 216 215 214 214 216 218 220 221 222 223 225 230 233 234 235 236 236 236 236 233 230 227 228 232
205 205 215 221 222 230 235 239 239 239 240 217 205 214 228 234 235 215 220 225 221 221 220 215 217 214 210 207 204 203 202 199 195 194 196 195 192 191 191 190 190 190 190 191 191 191 191 190 187 187 186 186 188 190 192 195 199 202 205 206 207 208 209 209 210 208 207 208 208 208 210 213 216 216 213 211 211 214 217 219 223 225 224 225 229 232 232 231 232 233 234 235 234 232 229 229 232
199 199 216 220 222 233 243 249 252 254 249 226 207 215 220 232 239 219 215 222 216 215 219 220 219 216 215 213 209 207 204 199 196 195 196 194 192 192 192 191 189 190 191 192 192 191 190 189 188 187 185 186 188 189 191 194 197 201 203 204 207 208 208 209 211 208 206 208 208 209 211 213 214 214 211 210 210 213 215 218 223 226 226 226 228 231 232 231 230 231 232 232 233 232 230 230 232
226 204 205 209 222 233 240 245 237 232 237 228 215 220 217 220 230 215 212 216 215 215 218 219 218 217 218 217 215 213 210 203 197 197 196 193 192 193 193 192 191 191 191 191 191 190 190 190 188 187 186 186 188 189 191 192 194 199 200 200 205 208 209 210 212 209 207 207 208 209 211 212 213 212 212 210 209 210 213 217 221 223 224 226 228 230 231 230 229 231 231 232 232 231 230 232 232
244 244 210 200 214 218 217 232 234 226 231 229 220 224 225 222 219 207 208 212 214 215 218 218 217 215 216 217 216 213 213 208 199 198 198 194 194 194 193 195 194 192 191 189 189 189 190 192 191 190 190 188 187 188 190 191 193 196 198 199 203 205 207 209 210 210 206 206 208 209 211 212 212 211 209 208 208 209 211 216 221 222 222 224 226 228 229 229 229 230 231 231 231 229 229 233 234
234 254 240 217 218 218 213 221 235 235 237 233 222 219 223 225 226 225 216 210 212 213 215 218 217 215 213 212 214 212 211 209 201 199 198 195 195 195 195 196 195 193 191 188 188 189 191 192 192 193 192 190 188 188 189 190 193 196 196 197 200 201 203 205 207 207 206 207 210 210 211 211 210 209 208 207 208 210 211 214 218 221 220 221 224 226 227 227 228 230 230 231 231 228 227 231 236
214 228 232 225 220 220 220 221 227 236 242 239 228 221 220 217 221 228 223 209 211 212 214 216 215 215 214 208 211 212 208 206 202 199 199 196 196 197 196 196 195 192 190 189 189 191 192 192 193 194 193 192 192 190 190 190 192 194 194 195 197 199 200 202 203 204 206 208 209 210 211 210 209 209 208 207 208 210 212 214 217 218 219 220 221 222 224 225 226 227 228 230 229 227 228 231 236
235 225 220 220 221 219 220 222 221 227 238 240 238 237 225 183 190 218 220 214 215 216 219 220 214 215 215 209 210 210 205 204 202 201 201 198 196 197 196 194 193 191 189 190 192 192 192 193 194 194 194 194 194 193 191 190 190 192 193 194 196 197 197 199 201 202 205 207 208 209 209 208 209 209 208 208 209 210 211 213 215 216 217 217 218 219 221 222 224 225 225 227 227 225 225 228 233